Flag for Germany Weather past 2 weeks in Hemer, North Rhine-Westphalia, Germany

Now
61 °F

Partly sunny.


Feels Like: 61 °F
Forecast: 49 / 64 °F
Wind: 6 mph from Northwest

Location: Dortmund / Wickede

Current Time: Sep 1, 2015 at 2:43:26 PM

Latest Report: Sep 1, 2015 at 2:20 PM


Visibility: N/A

Pressure: 29.89 "Hg

Humidity: 83%

Dew point: 55 °F

Location of HemerLocation

Historic Weather in Hemer — Graph

°F

Hemer temperature yesterday

Maximum temperature yesterday: 88 °F (at 3:50 PM)
Minimum temperature yesterday: 68 °F (at 5:50 AM)
Average temperature yesterday: 79 °F

Past Weeks' High & Low Weather Summary

 TemperatureHumidityPressure
High88 °F (Aug 30, 2:20 PM)94% (Aug 18, 6:50 AM)30.24 "Hg (Aug 18, 6:50 AM)
Low50 °F (Aug 19, 5:20 AM)26% (Aug 22, 4:50 PM)29.56 "Hg (Aug 24, 2:50 PM)
Average67 °F63%29.97 "Hg
* Reported Aug 17 1:50 PM — Sep 1 1:20 PM, Hemer, Weather by CustomWeather, © 2015

Note: Actual official high and low records may vary slightly from our data, if they occured in-between our weather recording intervals... More about our weather records

Advertising

Hemer weather history for previous 24 hours

 ConditionsComfort  
Time TempWeatherWind HumidityBarometerVisibility
1:20 PM
Tue, Sep 1
59 °FLight rain. Partly sunny.6 mph88%29.86 "Hg6 mi
12:50 PM59 °FLight rain. Partly sunny.6 mph88%29.86 "Hg6 mi
12:20 PM59 °FLight rain. Partly sunny.6 mph94%29.86 "Hg6 mi
11:50 AM59 °FLight rain. Broken clouds.6 mph88%29.83 "Hg4 mi
11:20 AM59 °FLight rain. Partly sunny.5 mph88%29.83 "Hg6 mi
10:50 AM59 °FDrizzle. Broken clouds.3 mph88%29.83 "HgN/A
10:20 AM59 °FLight rain. Broken clouds.6 mph88%29.83 "HgN/A
9:50 AM61 °FLight rain. Partly sunny.8 mph83%29.80 "Hg6 mi
9:20 AM61 °FDrizzle. Broken clouds.6 mph88%29.80 "HgN/A
8:50 AM63 °FLight rain. Partly sunny.7 mph83%29.80 "Hg4 mi
8:20 AM63 °FPartly sunny.9 mph77%29.83 "HgN/A
7:50 AM64 °FPartly sunny.8 mph73%29.83 "HgN/A
7:20 AM63 °FPassing clouds.8 mph77%29.83 "HgN/A
6:50 AM63 °FPassing clouds.7 mph77%29.83 "HgN/A
5:20 AM64 °FPassing clouds.10 mph73%29.80 "HgN/A
10:50 PM
Mon, Aug 31
72 °FMild.9 mph69%29.80 "HgN/A
10:20 PM72 °FClear.9 mph65%29.80 "Hg10 mi
9:50 PM73 °FPassing clouds.8 mph65%29.80 "HgN/A
9:20 PM75 °FPassing clouds.7 mph61%29.80 "HgN/A
8:50 PM77 °FPassing clouds.8 mph54%29.77 "HgN/A
8:20 PM77 °FSunny.10 mph44%29.77 "Hg10 mi
7:50 PM81 °FSunny.9 mph37%29.74 "Hg10 mi
7:20 PM82 °FSunny.10 mph32%29.74 "Hg10 mi
6:50 PM84 °FSunny.14 mph29%29.77 "Hg10 mi
6:20 PM86 °FSunny.15 mph27%29.77 "Hg10 mi
5:50 PM86 °FSunny.17 mph27%29.77 "Hg10 mi
5:20 PM88 °FSunny.15 mph27%29.77 "Hg10 mi
4:50 PM88 °FSunny.15 mph29%29.77 "Hg10 mi
4:20 PM88 °FPassing clouds.13 mph35%29.77 "HgN/A
3:50 PM88 °FSunny.15 mph33%29.77 "Hg10 mi
3:20 PM86 °FPassing clouds.14 mph31%29.77 "HgN/A
2:50 PM86 °FPassing clouds.14 mph38%29.80 "HgN/A
2:20 PM86 °FPassing clouds.16 mph38%29.80 "HgN/A
Weather by CustomWeather, © 2015

See weather overviewHow to use our weather pages